Temp
-14 -13 -13 -13 -13 -13 -13 -13 -12 -13 -12 -13 -12 -12 -12 -12 -13 -13 -13 -13 -12 -13 -12 -12 -13 -13 -12 -12 -12 -13 -13 -13 -14 -14 -14 -14 -14 -15 -15 -15 -15 -16 -16 -16
-14 -13 -13 -13 -13 -13 -13 -13 -12 -13 -12 -14 -13 -12 -12 -13 -12 -13 -13 -12 -12 -12 -12 -13 -13 -13 -13 -13 -13 -13 -14 -14 -14 -14 -15 -15 -15 -16 -16 -16 -16 -16 -16 -16
-13 -13 -13 -12 -14 -13 -13 -13 -13 -12 -13 -13 -13 -13 -13 -12 -12 -12 -12 -12 -12 -13 -13 -13 -13 -13 -14 -13 -13 -14 -14 -15 -15 -15 -16 -16 -16 -16 -16 -16 -17 -17 -17 -17
-13 -14 -13 -13 -13 -13 -13 -13 -13 -13 -13 -13 -12 -12 -12 -12 -12 -12 -13 -13 -13 -13 -14 -14 -14 -14 -14 -14 -15 -15 -15 -15 -16 -16 -16 -16 -16 -17 -17 -17 -17 -17 -17 -17
-13 -13 -13 -13 -13 -13 -13 -13 -13 -13 -13 -13 -13 -13 -13 -13 -13 -13 -14 -14 -14 -14 -14 -14 -14 -15 -15 -15 -15 -15 -16 -16 -16 -16 -17 -17 -17 -17 -17 -17 -17 -17 -17 -17
-13 -12 -12 -13 -13 -13 -13 -13 -14 -13 -13 -13 -13 -13 -14 -14 -14 -14 -15 -15 -15 -15 -15 -15 -15 -15 -16 -16 -16 -16 -16 -16 -17 -16 -16 -16 -17 -17 -17 -17 -17 -17 -18 -18
-14 -13 -13 -14 -14 -14 -14 -13 -13 -14 -14 -14 -14 -14 -14 -15 -15 -15 -15 -15 -15 -15 -15 -15 -15 -16 -16 -16 -16 -16 -16 -16 -16 -17 -17 -17 -17 -18 -18 -18 -18 -18 -19 -18
-14 -14 -14 -14 -15 -14 -14 -14 -14 -14 -14 -14 -14 -15 -15 -15 -15 -16 -16 -16 -16 -16 -16 -16 -16 -16 -16 -16 -16 -16 -16 -16 -17 -17 -17 -18 -18 -18 -19 -19 -19 -19 -19 -19
-15 -15 -15 -15 -15 -14 -14 -14 -14 -15 -15 -15 -15 -15 -15 -16 -16 -16 -16 -16 -16 -17 -17 -17 -17 -17 -16 -16 -16 -16 -17 -17 -18 -18 -18 -19 -19 -19 -20 -20 -20 -20 -20 -19
-15 -16 -15 -15 -15 -15 -15 -15 -15 -15 -15 -15 -16 -16 -16 -16 -16 -17 -17 -17 -17 -17 -17 -17 -17 -17 -17 -17 -17 -17 -18 -18 -19 -19 -19 -19 -20 -20 -20 -21 -21 -20 -20 -21
-15 -16 -15 -16 -16 -16 -16 -16 -16 -16 -16 -16 -17 -17 -17 -18 -18 -18 -18 -17 -17 -17 -17 -18 -18 -18 -18 -18 -18 -18 -19 -19 -19 -20 -20 -20 -21 -21 -21 -22 -22 -22 -22 -22
-15 -16 -15 -16 -16 -16 -16 -16 -16 -17 -17 -18 -18 -18 -18 -18 -18 -18 -18 -18 -18 -18 -18 -19 -19 -19 -19 -19 -19 -19 -19 -20 -20 -20 -21 -21 -22 -22 -22 -23 -23 -25 -25 -26
-16 -17 -16 -16 -16 -17 -17 -17 -17 -17 -18 -18 -18 -18 -18 -19 -19 -19 -19 -19 -19 -19 -19 -19 -20 -20 -20 -20 -20 -20 -20 -21 -21 -21 -22 -22 -22 -23 -23 -23 -26 -28 -29 -29
-17 -16 -17 -17 -17 -17 -17 -17 -18 -18 -18 -18 -19 -19 -19 -19 -20 -20 -20 -20 -20 -20 -20 -20 -20 -20 -20 -20 -20 -21 -21 -21 -22 -22 -23 -23 -24 -24 -25 -26 -26 -29 -30 -30
-18 -18 -17 -17 -18 -18 -18 -18 -18 -18 -18 -18 -19 -19 -19 -19 -20 -20 -21 -21 -21 -21 -21 -21 -21 -21 -21 -21 -22 -22 -22 -22 -23 -23 -24 -24 -25 -26 -27 -28 -30 -30 -30 -30
-18 -19 -19 -18 -18 -19 -19 -19 -19 -19 -19 -19 -20 -20 -20 -21 -21 -22 -22 -22 -21 -21 -21 -21 -21 -21 -22 -22 -23 -23 -23 -24 -24 -24 -25 -26 -27 -28 -29 -30 -30 -30 -30 -30
-20 -20 -20 -19 -19 -19 -19 -20 -20 -20 -20 -20 -21 -22 -22 -22 -22 -22 -22 -22 -22 -21 -22 -22 -22 -23 -23 -23 -24 -24 -24 -25 -25 -26 -27 -28 -29 -30 -31 -30 -30 -30 -30 -30
-21 -21 -21 -20 -20 -20 -20 -20 -21 -21 -22 -22 -22 -22 -23 -23 -23 -22 -22 -22 -22 -22 -23 -23 -24 -24 -24 -24 -25 -25 -25 -26 -27 -28 -29 -29 -30 -31 -30 -30 -30 -30 -30 -30
-21 -21 -22 -22 -22 -22 -22 -22 -22 -22 -22 -22 -23 -23 -23 -23 -23 -22 -22 -23 -23 -23 -24 -24 -24 -25 -25 -25 -26 -27 -28 -28 -29 -30 -31 -31 -31 -31 -30 -30 -30 -30 -30 -30
-22 -22 -22 -22 -22 -22 -22 -22 -22 -22 -23 -23 -23 -23 -23 -23 -23 -23 -23 -24 -25 -25 -25 -25 -25 -26 -27 -28 -29 -29 -30 -31 -32 -32 -32 -31 -31 -30 -30 -30 -30 -30 -30 -29
-22 -23 -23 -23 -23 -23 -23 -23 -23 -23 -23 -23 -23 -23 -23 -23 -24 -24 -25 -25 -25 -25 -25 -26 -27 -28 -29 -30 -31 -32 -33 -33 -33 -32 -32 -31 -30 -30 -30 -30 -29 -29 -29 -29
-23 -23 -23 -23 -23 -23 -23 -23 -23 -23 -23 -23 -23 -24 -24 -25 -25 -25 -26 -26 -26 -26 -27 -29 -30 -31 -32 -33 -34 -34 -34 -33 -33 -32 -31 -31 -30 -30 -30 -29 -29 -29 -29 -29
-24 -24 -23 -23 -23 -23 -23 -24 -24 -24 -24 -24 -25 -25 -25 -26 -26 -26 -26 -27 -29 -30 -30 -31 -32 -33 -34 -34 -34 -34 -33 -33 -32 -31 -31 -30 -30 -30 -29 -29 -29 -29 -29 -29
-24 -24 -24 -24 -24 -24 -24 -24 -24 -24 -25 -25 -25 -26 -26 -26 -27 -28 -30 -30 -31 -32 -32 -32 -33 -33 -34 -34 -34 -34 -33 -32 -31 -31 -30 -30 -30 -29 -29 -29 -28 -29 -29 -29
-24 -24 -24 -24 -24 -24 -24 -25 -25 -26 -26 -27 -27 -27 -28 -29 -30 -30 -32 -32 -32 -33 -33 -33 -34 -34 -34 -34 -34 -33 -32 -32 -31 -30 -30 -30 -29 -29 -28 -28 -28 -28 -29 -29
-25 -25 -25 -25 -26 -26 -27 -27 -27 -27 -27 -27 -28 -29 -30 -31 -32 -32 -32 -33 -33 -33 -34 -34 -34 -34 -34 -34 -33 -32 -31 -31 -31 -30 -30 -29 -29 -28 -28 -28 -28 -29 -29 -29
-26 -26 -27 -27 -27 -27 -27 -27 -28 -28 -30 -31 -31 -32 -32 -32 -32 -32 -33 -33 -33 -33 -34 -34 -34 -34 -34 -33 -32 -32 -31 -31 -30 -30 -29 -29 -29 -28 -28 -28 -28 -29 -29 -29
Height
5750 5751 5752 5752 5753 5752 5751 5751 5750 5753 5750 5748 5747 5745 5744 5741 5739 5739 5737 5735 5733 5731 5730 5728 5725 5723 5720 5716 5712 5708 5703 5698 5694 5689 5684 5679 5674 5669 5663 5657 5652 5647 5643 5638
5746 5746 5746 5747 5746 5745 5745 5744 5743 5741 5744 5739 5735 5734 5735 5733 5732 5731 5729 5727 5725 5723 5721 5718 5715 5711 5707 5703 5699 5694 5690 5685 5680 5676 5671 5665 5659 5654 5648 5643 5637 5633 5627 5622
5741 5740 5739 5742 5741 5737 5737 5736 5734 5733 5734 5731 5729 5727 5726 5725 5723 5721 5719 5717 5715 5712 5709 5706 5702 5699 5695 5690 5686 5682 5676 5671 5666 5661 5656 5650 5644 5639 5634 5629 5623 5617 5611 5604
5735 5733 5732 5735 5733 5731 5729 5728 5726 5725 5723 5722 5720 5719 5717 5714 5712 5710 5708 5705 5703 5699 5696 5693 5689 5686 5681 5677 5673 5668 5663 5658 5652 5647 5641 5636 5630 5624 5619 5613 5606 5600 5594 5586
5729 5728 5728 5728 5725 5724 5722 5722 5717 5717 5714 5712 5710 5709 5707 5704 5702 5699 5696 5693 5690 5686 5683 5680 5677 5673 5668 5663 5658 5653 5649 5643 5637 5632 5626 5621 5614 5608 5601 5595 5589 5582 5575 5568
5721 5720 5721 5721 5717 5715 5713 5714 5710 5707 5705 5703 5701 5699 5695 5693 5690 5687 5684 5680 5676 5673 5670 5666 5662 5658 5654 5649 5645 5639 5634 5629 5622 5616 5610 5604 5597 5590 5582 5575 5568 5561 5555 5545
5711 5709 5713 5709 5706 5704 5704 5705 5699 5696 5694 5691 5689 5687 5684 5681 5678 5674 5671 5668 5664 5660 5655 5651 5648 5644 5639 5634 5630 5625 5619 5612 5606 5599 5592 5585 5578 5569 5562 5555 5547 5538 5531 5522
5704 5701 5701 5700 5696 5693 5690 5687 5686 5685 5683 5681 5678 5675 5672 5669 5666 5663 5659 5656 5652 5648 5643 5638 5635 5631 5625 5620 5615 5609 5603 5596 5590 5582 5574 5567 5559 5551 5540 5530 5521 5512 5503 5495
5697 5695 5689 5684 5683 5682 5680 5679 5676 5674 5671 5669 5666 5663 5660 5657 5654 5650 5646 5643 5639 5635 5630 5624 5620 5614 5610 5604 5599 5593 5586 5579 5572 5565 5556 5547 5538 5528 5518 5505 5492 5484 5472 5462
5683 5688 5679 5674 5672 5669 5667 5667 5664 5661 5659 5656 5654 5651 5647 5644 5640 5636 5633 5629 5625 5621 5616 5610 5604 5598 5593 5588 5583 5577 5570 5562 5554 5546 5538 5527 5516 5504 5493 5480 5465 5452 5440 5430
5674 5673 5666 5667 5663 5660 5656 5654 5652 5650 5648 5645 5641 5638 5634 5630 5627 5624 5619 5615 5611 5607 5601 5594 5588 5582 5575 5571 5566 5560 5552 5544 5535 5526 5516 5507 5496 5481 5468 5452 5432 5418 5408 5398
5662 5659 5656 5655 5651 5648 5645 5642 5640 5637 5634 5631 5628 5624 5621 5617 5614 5609 5604 5600 5596 5591 5585 5579 5573 5567 5559 5554 5548 5540 5533 5524 5515 5505 5494 5482 5469 5462 5448 5426 5411 5396 5383 5373
5648 5647 5643 5639 5636 5633 5632 5629 5626 5623 5619 5616 5613 5610 5607 5602 5598 5595 5591 5585 5580 5575 5569 5564 5558 5552 5542 5536 5528 5520 5512 5503 5493 5481 5469 5456 5443 5428 5418 5415 5393 5381 5372 5361
5632 5630 5627 5624 5622 5619 5616 5613 5610 5607 5604 5601 5598 5595 5591 5588 5584 5579 5574 5570 5564 5559 5554 5547 5541 5534 5522 5515 5508 5500 5490 5479 5466 5456 5443 5430 5416 5403 5390 5381 5377 5374 5366 5352
5614 5612 5609 5607 5605 5603 5601 5598 5595 5593 5590 5587 5583 5580 5577 5573 5569 5565 5559 5554 5549 5544 5537 5530 5523 5515 5505 5495 5486 5478 5467 5456 5443 5431 5419 5405 5392 5382 5373 5365 5360 5356 5352 5347
5596 5594 5593 5592 5590 5588 5585 5583 5581 5578 5575 5572 5568 5565 5561 5558 5554 5550 5544 5537 5533 5528 5519 5511 5504 5495 5485 5473 5463 5456 5446 5432 5416 5405 5394 5383 5374 5365 5358 5354 5350 5345 5340 5334
5583 5581 5579 5577 5576 5574 5571 5569 5566 5563 5560 5557 5554 5550 5547 5543 5540 5534 5529 5523 5517 5509 5499 5490 5484 5473 5462 5450 5439 5430 5419 5407 5395 5383 5374 5366 5358 5352 5348 5344 5340 5335 5330 5324
5572 5570 5568 5566 5563 5561 5559 5557 5554 5551 5547 5544 5541 5537 5533 5529 5524 5520 5514 5507 5499 5491 5479 5471 5460 5450 5440 5427 5414 5404 5392 5382 5373 5364 5357 5351 5346 5342 5339 5335 5329 5324 5320 5315
5564 5561 5558 5556 5553 5551 5548 5545 5543 5540 5536 5532 5528 5524 5519 5513 5506 5501 5494 5487 5478 5468 5463 5450 5439 5427 5414 5402 5387 5379 5370 5361 5354 5347 5342 5339 5336 5333 5329 5324 5319 5314 5310 5306
5554 5551 5548 5546 5543 5541 5538 5534 5532 5528 5522 5518 5514 5509 5503 5496 5487 5481 5474 5467 5454 5443 5436 5427 5414 5403 5391 5379 5369 5359 5351 5344 5339 5335 5331 5328 5326 5323 5319 5314 5309 5304 5300 5296
5542 5539 5537 5534 5531 5528 5524 5520 5518 5514 5508 5502 5496 5490 5484 5477 5468 5460 5451 5442 5435 5422 5412 5402 5389 5378 5369 5358 5351 5344 5338 5333 5328 5324 5321 5319 5316 5313 5308 5303 5299 5294 5290 5287
5530 5527 5524 5521 5518 5515 5510 5506 5501 5496 5491 5485 5477 5469 5461 5455 5446 5440 5430 5415 5411 5400 5391 5382 5371 5361 5351 5345 5339 5333 5328 5323 5318 5315 5312 5309 5306 5302 5298 5294 5289 5285 5282 5280
5516 5514 5511 5507 5503 5499 5494 5489 5483 5476 5472 5465 5458 5449 5439 5432 5422 5413 5409 5403 5387 5380 5373 5365 5356 5347 5340 5334 5328 5323 5318 5313 5310 5307 5303 5300 5296 5292 5288 5284 5281 5277 5275 5273
5503 5500 5495 5490 5485 5481 5476 5469 5464 5458 5449 5444 5437 5429 5419 5410 5405 5392 5383 5378 5372 5364 5358 5351 5343 5336 5329 5323 5318 5313 5309 5305 5303 5299 5295 5292 5287 5283 5279 5276 5273 5270 5268 5267
5488 5483 5478 5472 5466 5462 5457 5450 5444 5438 5429 5422 5415 5408 5397 5387 5378 5376 5368 5362 5357 5350 5345 5338 5330 5324 5319 5313 5308 5304 5302 5299 5295 5291 5287 5283 5278 5274 5271 5268 5266 5263 5262 5262
5469 5464 5459 5452 5446 5440 5434 5429 5423 5419 5407 5400 5394 5387 5379 5372 5364 5357 5352 5347 5342 5337 5331 5326 5320 5314 5309 5304 5301 5298 5296 5292 5288 5284 5279 5274 5271 5267 5264 5262 5260 5259 5259 5259
5449 5443 5438 5433 5424 5417 5410 5404 5397 5392 5383 5375 5371 5371 5362 5356 5350 5343 5337 5333 5328 5323 5318 5314 5309 5304 5300 5297 5295 5292 5289 5285 5280 5276 5272 5268 5264 5261 5259 5257 5256 5256 5256 5257
Wind_Speed
23 25 26 28 30 33 34 34 35 30 32 33 36 37 38 38 33 31 34 35 34 35 36 39 41 43 46 47 49 51 53 53 53 54 54 55 56 58 58 57 55 52 52 55
24 25 26 26 28 30 31 32 33 36 32 32 40 40 35 32 32 34 35 35 36 39 41 43 46 48 49 51 53 54 55 56 56 56 57 58 57 56 53 54 55 57 58 60
24 27 29 27 24 32 34 34 34 34 28 32 33 33 34 34 35 36 38 39 41 43 45 47 49 50 52 54 56 57 55 56 58 58 57 56 53 54 55 57 59 62 64 65
20 24 24 20 22 26 29 29 30 29 30 31 33 34 35 37 39 40 41 43 44 46 48 49 51 52 53 54 55 56 57 58 57 55 53 54 56 59 61 62 64 66 68 71
24 25 25 24 26 28 29 28 33 32 34 35 36 37 38 40 41 43 45 46 48 49 50 51 52 52 52 54 56 57 57 54 53 55 57 59 61 63 66 68 69 71 74 74
27 28 27 26 30 33 35 32 35 37 38 39 40 41 43 44 44 45 46 48 49 50 51 52 53 53 53 54 53 52 53 55 58 60 62 65 67 70 72 74 76 79 79 82
33 36 33 34 36 37 36 38 39 41 42 42 43 44 46 47 48 48 48 49 50 50 52 53 52 50 50 52 54 55 58 60 62 65 69 72 74 77 81 82 84 85 88 92
37 38 38 37 40 42 43 43 43 44 44 45 46 46 47 48 48 49 50 51 52 51 48 48 51 53 55 57 59 61 63 64 68 72 74 77 80 83 85 86 89 93 96 99
35 34 38 42 43 44 45 44 44 44 45 46 46 47 48 48 48 49 48 45 45 49 50 52 54 56 59 62 63 65 67 71 73 76 78 82 84 85 87 92 98 102 104 104
44 37 44 47 47 47 45 43 42 42 43 43 43 43 43 43 43 45 47 48 49 51 53 56 59 62 64 66 68 69 72 75 77 80 82 84 86 91 96 101 105 106 105 101
45 46 50 48 50 50 50 49 49 47 46 45 44 44 44 45 46 47 49 51 54 56 58 60 62 64 66 68 71 74 76 80 82 84 85 88 92 98 102 104 108 105 100 95
47 49 50 51 51 52 52 52 51 49 47 45 45 45 46 48 49 51 53 56 57 59 61 63 65 67 69 72 75 78 81 83 84 87 90 93 98 98 102 106 97 85 79 74
52 50 52 54 55 56 54 53 51 50 49 49 50 50 51 51 54 55 57 59 60 62 63 64 67 70 74 78 80 80 81 84 87 91 94 99 103 106 105 91 72 61 58 55
55 54 54 54 55 56 57 56 55 54 53 52 52 53 54 55 55 56 58 59 61 63 65 68 71 74 77 78 80 83 87 90 95 98 101 105 108 102 86 73 64 47 38 46
57 57 57 56 55 55 55 55 55 55 56 56 57 57 57 56 57 56 57 59 62 65 68 71 73 74 78 83 86 88 92 96 100 103 105 105 94 79 67 54 43 39 40 40
54 54 53 52 52 52 51 52 53 54 54 53 53 54 55 53 51 53 57 61 64 66 69 73 76 80 83 87 90 93 96 101 105 105 98 83 73 62 48 38 37 40 40 39
47 45 45 45 46 48 49 50 51 51 51 49 48 46 46 48 51 56 60 63 66 70 75 78 81 83 87 91 95 99 102 104 100 89 77 67 56 44 36 36 38 42 44 38
39 40 40 41 43 45 46 48 47 45 45 45 46 47 49 53 58 62 66 69 72 75 79 82 85 88 92 97 102 102 101 91 80 71 59 50 40 35 35 39 42 44 42 38
38 38 37 37 37 39 40 41 42 43 46 48 51 53 57 63 67 69 72 75 77 80 81 85 90 95 100 101 98 87 80 73 61 53 44 36 34 35 38 42 43 41 39 37
40 40 40 39 39 40 42 45 47 49 54 57 59 62 65 68 72 75 77 77 81 86 89 93 97 97 92 82 76 71 62 54 48 40 34 32 33 35 39 42 40 39 37 34
44 45 45 46 46 48 50 52 53 56 60 63 66 68 71 74 76 76 79 83 86 92 96 94 88 79 74 68 60 49 47 44 39 33 31 32 32 36 40 39 37 36 34 30
46 49 51 52 53 54 56 58 61 64 66 69 71 73 75 75 77 80 85 91 91 90 84 76 71 65 59 51 44 43 41 38 33 31 31 32 34 38 37 36 36 33 29 25
49 51 52 54 56 59 62 64 67 70 70 71 73 75 78 81 85 88 88 82 77 69 66 61 60 55 49 44 42 39 37 33 30 31 31 33 37 36 34 35 33 30 24 21
54 55 57 60 63 65 67 69 72 74 76 76 76 78 83 86 84 76 69 65 63 61 60 58 57 50 45 41 40 36 33 27 29 31 33 36 34 33 33 33 29 27 20 17
57 60 63 66 68 69 71 73 73 72 75 78 80 81 78 71 68 62 59 58 60 60 56 52 51 49 43 39 36 30 25 27 31 33 33 32 32 32 30 28 25 21 16 13
62 65 67 69 70 70 71 73 76 77 80 80 74 65 61 59 60 61 62 61 58 57 53 48 48 43 38 33 26 23 26 28 31 30 30 31 29 27 25 21 19 14 11 10
66 68 69 69 73 77 80 81 80 73 63 59 58 56 59 60 62 64 64 60 57 54 50 44 44 35 30 23 20 24 25 28 29 29 29 28 24 23 19 15 14 9 10 7
Wind_Direction
246 248 250 252 254 257 261 264 264 265 266 271 271 270 271 270 265 265 267 268 273 275 277 280 282 284 285 287 291 293 293 293 294 295 295 296 296 296 296 297 298 298 299 299
251 254 254 253 258 261 262 263 265 267 268 271 267 269 272 269 270 271 271 275 277 278 280 283 284 285 288 291 292 293 293 293 293 295 297 297 298 300 300 301 301 300 299 298
251 258 259 260 264 266 266 269 270 272 266 263 268 271 274 276 277 278 278 279 279 279 280 281 284 288 291 292 292 291 292 294 296 297 297 298 299 299 298 298 298 297 296 297
261 260 263 266 258 260 265 271 273 273 272 272 271 272 273 275 275 276 277 277 279 280 283 287 290 290 290 289 291 293 294 295 295 296 296 297 298 299 298 297 297 298 299 299
278 271 273 274 272 270 268 268 267 270 271 271 271 274 276 276 278 279 280 281 283 284 285 286 287 289 291 292 292 293 294 295 295 296 297 298 297 296 296 297 297 296 296 296
271 271 273 272 270 273 273 274 276 274 274 275 276 276 277 278 279 279 281 282 283 285 286 288 290 291 291 291 292 293 294 294 296 297 297 296 296 296 296 295 296 296 296 295
274 275 275 274 274 274 272 269 267 267 270 271 273 275 277 278 279 280 282 283 285 287 288 289 290 290 291 292 293 294 295 296 296 296 296 296 297 298 297 296 297 298 300 303
279 281 283 280 277 275 272 272 274 276 277 277 278 278 278 279 280 281 283 284 285 286 288 289 290 291 292 293 294 293 294 294 295 295 296 296 296 297 298 299 299 301 302 303
282 281 279 277 277 276 277 279 279 278 278 279 279 279 280 282 283 284 284 285 286 288 288 288 289 289 289 290 291 292 293 294 295 296 297 298 299 300 300 301 302 302 303 303
280 281 281 279 279 280 281 281 279 279 280 281 283 285 285 285 284 285 285 286 285 286 288 287 288 289 289 290 291 293 295 296 297 298 299 300 302 303 303 302 303 305 305 305
279 280 279 282 282 284 285 284 284 284 284 284 283 281 280 282 283 283 284 284 284 285 286 286 287 288 289 291 293 296 297 298 300 302 303 303 304 304 305 307 309 308 308 307
282 280 282 282 281 281 282 283 284 283 282 282 280 281 282 282 283 283 283 285 286 286 286 287 289 291 294 296 297 298 299 301 303 304 304 304 306 307 308 311 310 308 306 307
284 282 281 280 280 280 281 281 279 276 276 276 279 282 283 283 282 283 285 285 285 286 288 290 292 295 297 298 298 300 302 304 304 304 305 307 308 310 310 309 306 304 305 306
281 281 280 278 277 277 278 279 277 275 274 276 278 279 279 280 283 284 285 287 289 290 293 295 297 298 299 299 300 302 303 304 304 306 306 308 310 311 310 307 305 304 303 306
279 279 278 278 278 276 276 276 276 276 276 277 277 278 279 280 281 284 287 289 292 295 296 298 299 299 300 300 301 302 303 305 305 306 308 309 309 309 307 304 305 306 308 305
279 280 279 278 277 276 275 275 276 278 279 279 278 279 280 284 287 291 294 294 296 298 299 298 299 300 300 300 301 303 304 304 306 308 309 308 308 305 301 301 304 309 310 309
283 282 280 279 278 277 276 274 274 275 277 279 280 283 288 292 293 294 296 298 299 299 299 299 301 301 301 302 303 304 304 305 307 306 306 306 303 298 297 302 304 307 309 306
285 284 283 282 280 280 279 279 278 279 281 285 288 290 291 292 294 296 297 299 299 300 300 301 301 303 303 303 303 304 305 305 304 305 303 300 295 294 298 303 306 309 309 305
288 287 286 287 288 287 285 285 285 287 290 291 292 294 295 296 296 297 298 300 300 299 301 302 303 304 305 304 304 305 303 304 304 302 299 291 291 294 300 303 306 305 304 303
287 287 286 286 286 285 286 288 290 293 293 294 294 294 295 296 297 298 299 299 300 302 303 304 305 305 305 305 304 304 304 303 303 301 295 289 291 295 300 305 304 304 304 303
286 286 288 289 291 291 292 292 292 292 293 294 295 295 295 296 297 299 299 301 302 304 305 306 306 306 307 307 308 304 300 305 304 297 294 296 295 300 305 306 306 306 303 300
290 288 288 290 291 292 293 295 296 296 297 297 296 297 297 298 299 300 303 304 304 304 305 306 308 310 311 310 306 305 306 305 300 296 300 300 301 305 306 306 308 305 302 295
290 291 292 294 294 295 296 296 296 296 296 295 297 297 298 300 302 303 301 302 303 304 307 312 312 310 312 306 305 308 307 303 298 302 303 304 307 307 305 305 306 302 298 288
294 295 295 295 295 295 295 295 295 295 295 295 296 299 300 299 299 301 301 303 305 308 311 312 311 309 312 308 307 306 305 300 302 306 306 307 307 306 304 304 302 301 294 282
295 294 293 292 292 292 291 291 292 294 296 298 299 299 299 299 300 301 303 306 307 307 308 308 310 309 314 312 307 305 301 305 308 307 308 309 309 307 304 305 303 299 285 271
293 291 290 291 291 291 292 293 294 296 296 296 297 299 298 298 300 301 303 302 303 303 303 305 308 308 312 308 302 299 304 306 308 309 311 313 310 306 306 306 304 294 274 271
290 290 290 292 294 295 295 296 296 298 298 297 297 298 297 298 298 298 299 300 300 299 299 303 305 306 305 300 299 305 306 312 312 313 315 313 310 308 307 299 301 275 279 239